Погода в Стряпунятах

Россия / Пермский край     58°10′47″N   55°56′53″E
темп.,
°C
ветер,
м/с
пор.,
м/с
влажн.,
%
обл.,
%
осадки,
мм/ч
давл.,
гПа
погр.,
м
14 мая, пт
пт1423:00+18юз22565 0.0 102515
02:00+16юз11595 0.0 102411
05:00+15юз22595 0.0 102512
08:00+19юз26517 0.0 1024219
11:00+25юз353616 0.0 1024928
14:00+28юз45285 0.0 10222028
17:00+28юз562713 0.0 10212304
20:00+24ююз38425 0.0 1020302
15 мая, сб
сб1523:00+18ююз2106427 0.0 1020211
02:00+17ююз21169100 0.0 1020228
05:00+15ююз311724 0.0 1019227
08:00+19юз4861100 0.0 1019331
11:00+24зюз474894 0.0 10191228
14:00+27зюз5835100 0.0 10181951
17:00+27зюз4936100 0.0 10182312
20:00+25юз51148100 0.0 1017722
16 мая, вс
вс1623:00+19ююз3136789 0.3 1017323
02:00+17юз3117583 0.0 1017244
05:00+15юз31176100 0.0 1018207
08:00+20юз495780 0.0 1018298
11:00+26юз593327 0.0 1018946
14:00+29юз611239 0.0 10172470
17:00+29юз69255 0.0 10162622
20:00+26юз511327 0.0 1015699
17 мая, пн
пн1723:00+21юз41349100 0.0 1015359
02:00+18ююз21158100 0.0 1015230
05:00+16юз287064 0.1 1015169
08:00+20зюз366450 0.0 1016350
11:00+24зюз594380 0.0 10161607
14:00+26з61135100 0.0 10162435
17:00+26з61032100 0.0 10152448
20:00+22з4944100 0.0 1015610
18 мая, вт
вт1823:00+18з31163100 0.0 1015269
02:00+16з277018 0.0 1016157
05:00+14зсз26780 0.0 1016114
08:00+19сз3665100 0.0 1017483
11:00+22сз4850100 0.0 10171333
14:00+24ссз574097 0.0 10172074
17:00+24ссз4636100 0.0 10182078
20:00+20ссв3648100 0.0 1018334